Regional Weather Roundup
Issued by NWS

Home | Current Version | Previous Version | Text Only | Print | Product List | Glossary On
Versions: 1 2 3 4 5 6 7 8 9 10 11 12 13 14 15 16 17 18 19 20 21 22 23 24 25 26 27 28 29 30 31 32 33 34 35 36 37 38 39 40 41 42 43 44 45 46 47 48 49 50
625
ASUS45 KREV 142310
RWRNV
NEVADA REGIONAL WEATHER ROUNDUP
NATIONAL WEATHER SERVICE RENO NV
300 PM PST SUN FEB 14 2016

NOTE: "FAIR" INDICATES FEW OR NO CLOUDS BELOW 12,000 FEET WITH NO
SIGNIFICANT WEATHER AND/OR OBSTRUCTIONS TO VISIBILITY.

NVZ001-003-004-150000-
WESTERN NEVADA

CITY           SKY/WX    TMP DP  RH WIND       PRES   REMARKS
RENO           PTSUNNY   60  37  42 N12       30.36R
CARSON CITY    CLOUDY    57  36  44 N13       30.35S
MINDEN         FAIR      59  34  38 S3        30.34F
SLIDE MTN        N/A     34  32  93 N13         N/A
PYRAMID LAKE     N/A     59 N/A N/A NW6         N/A
FALLON         CLOUDY    62  35  36 NW5       30.32R
LOVELOCK       CLOUDY    60  38  43 NW13      30.31R HAZE
HAWTHORNE      SUNNY     61  36  39 CALM      30.33F
$$

NVZ002-CAZ072-073-150000-
NORTHERN AND CENTRAL SIERRA

CITY           SKY/WX    TMP DP  RH WIND       PRES   REMARKS
S. LAKE TAHOE  PTSUNNY   51  33  50 N15G24    30.36F
SQUAW VLY 8000   N/A     39  32  75 N7          N/A
SUSANVILLE     MOSUNNY   61  39  44 MISG      30.38S
BLUE CANYON    CLOUDY    57  35  43 NE12G24   30.35R
MAMMOTH LAKES  FAIR      54  27  35 W12       30.40R
BRIDGEPORT     FAIR      52  30  43 NE7       30.37F
$$

NVZ030-031-036-150000-
NORTHERN NEVADA

CITY           SKY/WX    TMP DP  RH WIND       PRES   REMARKS
ELKO           PTSUNNY   46  33  60 S7        30.29S
WINNEMUCCA     CLOUDY    57  39  51 NW12      30.31R
WENDOVER       CLOUDY    43  34  70 S3        30.25R
$$

NVZ035-037-150000-
CENTRAL NEVADA

CITY           SKY/WX    TMP DP  RH WIND       PRES   REMARKS
ELY            SUNNY     43  30  60 N12       30.27S
EUREKA           N/A     48  28  46 CALM      30.31R
$$

NVZ013-014-150000-
SOUTH CENTRAL NEVADA

CITY           SKY/WX    TMP DP  RH WIND       PRES   REMARKS
TONOPAH        SUNNY     56  34  43 NW20      30.29R
$$

NVZ017-020-022-150000-
SOUTHERN NEVADA

CITY           SKY/WX    TMP DP  RH WIND       PRES   REMARKS
LAS VEGAS      PTSUNNY   74  14  10 N17       30.05F
N. LAS VEGAS   CLOUDY    73  16  11 NW20G25   30.07F
NELLIS AFB     PTSUNNY   73  18  13 W7        30.07F
HENDERSON      PTSUNNY   70  18  13 CALM      30.12F
MERCURY        PTSUNNY   67  22  18 N9        30.16F
$$




USA.gov is the U.S. government's official web portal to all federal, state and local government web resources and services.